Torna al catalogo

SL-24 R/B

AttivoPO
NORAD 36606·ROCKET BODY·🇷🇺 Russia

Lanciato Jun 21, 2010 da Baikonur Cosmodrome

Loading…

Prossimi Passaggi (prossime 24 ore)

TLE

AggiornatoSource: Space-Track

Epoca: Sep 14, 2026, 05:02 UTC

1 36606U 10030B   26257.21001635  .00000781  00000-0  12745-3 0  9993
2 36606  97.4507 172.5185 0417629 328.6770  29.0131 14.28979297843870

Traccia SL-24 R/B in tempo reale con AllMySat

Download on the App Store